Погода в Фершампенуазе

Россия / Челябинская область     53°31′17″N   59°49′19″E
темп.,
°C
ветер,
м/с
пор.,
м/с
влажн.,
%
обл.,
%
осадки,
мм/ч
давл.,
гПа
погр.,
м
14 мая, пт
пт1423:00+19зсз22405 0.0 102619
02:00+18зсз11435 0.0 102611
05:00+17зсз11445 0.0 102711
08:00+21з11405 0.0 1027159
11:00+26юз22271 0.0 10271016
14:00+28юз33244 0.0 10262658
17:00+28зюз44225 0.0 10252824
20:00+23зюз46330 0.0 102593
15 мая, сб
сб1523:00+20зюз47344 0.0 102595
02:00+17зсз36525 0.0 102598
05:00+17с22530 0.0 102511
08:00+21з23413 0.0 1026212
11:00+26зюз33285 0.0 10251378
14:00+28зюз33206 0.0 10242336
17:00+28з12225 0.0 10232775
20:00+24сз343465 0.0 102283
16 мая, вс
вс1623:00+20св224893 0.1 102325
02:00+18ссз22505 0.0 102211
05:00+17зсз11545 0.0 102311
08:00+22з11445 0.0 1024179
11:00+27ю21325 0.0 10221090
14:00+29ююз23241 0.0 10213043
17:00+29юз33218 0.0 10203362
20:00+24сз473754 0.0 1020196
17 мая, пн
пн1723:00+21с3340100 0.0 102033
02:00+20ссз11435 0.0 102011
05:00+18з22514 0.0 102111
08:00+23зсз22429 0.0 1021186
11:00+28зсз232613 0.0 10202885
14:00+29з332093 0.0 10193585
17:00+30з332076 0.0 10183300
20:00+24с224191 0.0 101831
18 мая, вт
вт1823:00+20с015119 0.2 101911
02:00+19зсз3352100 0.0 101834
05:00+18зсз335662 0.0 101834
08:00+22сз35455 0.0 1018259
11:00+27ссз4630100 0.0 10172066
14:00+28с452899 0.0 10163084
17:00+27зсз473076 0.3 10162130
20:00+22ссв114996 0.3 101537